Location: Bukit Lungun
(2.6833°N, 113.9667°E)
Time: 22:59:59
(UTC+00:00)

USA 234 - Visible Passes

Search period start: 24 June 2021 00:00
Search period end: 04 July 2021 00:00
Orbit: 1102 x 1105 km, 123.0° (Epoch: 18 April)

Date Brightness Start Highest point End Pass type
(mag) Time Alt. Az. Time Alt. Az. Time Alt. Az.
24 Jun 4.1 13:23:23 43° NNW 13:23:23 43° NNW 13:27:35 10° NNW visible
25 Jun 4.4 12:39:01 28° NE 12:39:01 28° NE 12:43:55 10° N visible
25 Jun 5.6 14:26:23 15° WNW 14:26:23 15° WNW 14:27:24 10° NW visible
26 Jun 4.6 13:42:00 31° NNW 13:42:00 31° NNW 13:45:09 10° NNW visible
27 Jun 4.6 12:57:36 26° NNE 12:57:36 26° NNE 13:01:30 10° N visible
27 Jun 5.9 14:44:58 10° WNW 14:44:58 10° WNW 14:44:58 10° WNW visible
28 Jun 5.1 14:00:33 23° NNW 14:00:33 23° NNW 14:02:43 10° NNW visible
29 Jun 4.9 13:16:08 22° NNE 13:16:08 22° NNE 13:19:04 10° N visible
30 Jun 5.5 14:19:03 17° NNW 14:19:03 17° NNW 14:20:17 10° NNW visible
01 Jul 5.1 13:34:36 19° N 13:34:36 19° N 13:36:39 10° N visible
02 Jul 5.8 14:37:30 12° NNW 14:37:30 12° NNW 14:37:50 10° NNW visible
03 Jul 5.4 13:53:01 15° N 13:53:01 15° N 13:54:14 10° N visible
